NWS732 UMKK-UWKD

Flight info

Callsign NWS732
Flight time N/A
Altitude 33000
Route TURIP3M TURIP DCT OTVOV DCT KEDUX DCT PIVAX DCT PIRUX DCT PISIM DCT PIDIN/N0462F350 DCT ARANS/K0856F350 DCT PISIS DCT MIGTU T73 DESUD P164 ROKUR T784 ADMUL L94 UNORO T788 KOROM KOROM1T
Aircraft A321/M-SDE3FGHIRWY/LB1

Departure

Time 2026-04-28 19:32
Airport Khrabrovo Airport (UMKK)

Arrival

Time N/A
Airport Kazan International Airport (UWKD)
Time Latitude Longitude Altitude Speed Heading
2026-04-28 18:50 54.88384 20.58505 37 ft 0 kts 157°
2026-04-28 19:18 54.88390 20.58500 37 ft 2 kts 157°
2026-04-28 19:19 54.88404 20.58490 37 ft 2 kts 157°
2026-04-28 19:19 54.88412 20.58484 37 ft 2 kts 154°
2026-04-28 19:19 54.88423 20.58466 36 ft 2 kts 113°
2026-04-28 19:19 54.88425 20.58440 36 ft 2 kts 81°
2026-04-28 19:20 54.88423 20.58426 36 ft 1 kts 62°
2026-04-28 19:20 54.88419 20.58415 36 ft 0 kts 61°
2026-04-28 19:23 54.88419 20.58416 36 ft 0 kts 61°
2026-04-28 19:23 54.88422 20.58424 36 ft 2 kts 65°
2026-04-28 19:23 54.88433 20.58464 36 ft 5 kts 66°
2026-04-28 19:24 54.88451 20.58535 36 ft 7 kts 66°
2026-04-28 19:24 54.88472 20.58615 38 ft 7 kts 65°
2026-04-28 19:24 54.88496 20.58705 38 ft 9 kts 67°
2026-04-28 19:24 54.88530 20.58805 37 ft 10 kts 32°
2026-04-28 19:25 54.88599 20.58784 36 ft 8 kts 338°
2026-04-28 19:25 54.88657 20.58743 35 ft 9 kts 342°
2026-04-28 19:25 54.88713 20.58826 35 ft 14 kts 67°
2026-04-28 19:25 54.88741 20.58918 36 ft 12 kts 49°
2026-04-28 19:27 54.88882 20.59104 35 ft 11 kts 37°
2026-04-28 19:27 54.88951 20.59199 35 ft 14 kts 42°
2026-04-28 19:27 54.89017 20.59349 35 ft 16 kts 62°
2026-04-28 19:28 54.89074 20.59548 32 ft 20 kts 66°
2026-04-28 19:28 54.89136 20.59789 31 ft 22 kts 66°
2026-04-28 19:28 54.89204 20.60049 31 ft 24 kts 66°
2026-04-28 19:28 54.89277 20.60331 28 ft 26 kts 66°
2026-04-28 19:29 54.89355 20.60632 28 ft 27 kts 66°
2026-04-28 19:29 54.89410 20.60843 25 ft 29 kts 66°
2026-04-28 19:29 54.89516 20.61252 25 ft 26 kts 66°
2026-04-28 19:29 54.89592 20.61541 25 ft 25 kts 66°
2026-04-28 19:30 54.89661 20.61810 25 ft 24 kts 66°
2026-04-28 19:30 54.89699 20.62041 25 ft 17 kts 95°
2026-04-28 19:30 54.89714 20.62212 25 ft 10 kts 62°
2026-04-28 19:30 54.89770 20.62208 25 ft 7 kts 279°
2026-04-28 19:31 54.89754 20.62163 25 ft 5 kts 242°
2026-04-28 19:31 54.89727 20.62032 25 ft 31 kts 246°
2026-04-28 19:31 54.89542 20.61318 24 ft 97 kts 245°
2026-04-28 19:31 54.89181 20.59922 32 ft 154 kts 246°
2026-04-28 19:32 54.88695 20.58047 332 ft 175 kts 246°
2026-04-28 19:32 54.88290 20.56073 888 ft 179 kts 265°
2026-04-28 19:32 54.88666 20.54084 1467 ft 180 kts 317°
2026-04-28 19:32 54.89752 20.53222 1986 ft 176 kts 357°
2026-04-28 19:33 54.90985 20.53354 2280 ft 183 kts
2026-04-28 19:33 54.92294 20.53532 2527 ft 195 kts
2026-04-28 19:33 54.93698 20.53677 2785 ft 208 kts
2026-04-28 19:33 54.95182 20.53799 3045 ft 221 kts
2026-04-28 19:34 54.96788 20.53914 3257 ft 239 kts
2026-04-28 19:34 54.98484 20.54024 3635 ft 250 kts
2026-04-28 19:34 55.00222 20.54133 4198 ft 253 kts
2026-04-28 19:34 55.01984 20.54240 4678 ft 260 kts
2026-04-28 19:35 55.03814 20.54350 5135 ft 269 kts
2026-04-28 19:35 55.05706 20.54462 5767 ft 272 kts
2026-04-28 19:35 55.07575 20.54574 6399 ft 274 kts
2026-04-28 19:35 55.09470 20.54686 7024 ft 276 kts
2026-04-28 19:36 55.11386 20.54800 7638 ft 278 kts
2026-04-28 19:36 55.13338 20.54916 8249 ft 281 kts
2026-04-28 19:36 55.15287 20.55031 8845 ft 283 kts
2026-04-28 19:36 55.17237 20.55147 9426 ft 286 kts
2026-04-28 19:37 55.19223 20.55265 9851 ft 288 kts
2026-04-28 19:37 55.20560 20.55344 9973 ft 289 kts
2026-04-28 19:37 55.23225 20.55503 9978 ft 288 kts
2026-04-28 19:37 55.25237 20.55623 9980 ft 288 kts
2026-04-28 19:38 55.27224 20.55742 9981 ft 288 kts
2026-04-28 19:38 55.29237 20.55847 9981 ft 288 kts 359°
2026-04-28 19:38 55.31193 20.55201 10005 ft 293 kts 337°
2026-04-28 19:38 55.31849 20.54642 10109 ft 295 kts 329°
2026-04-28 19:39 55.32252 20.54199 10189 ft 298 kts 325°
2026-04-28 19:39 55.33859 20.51771 10469 ft 311 kts 317°
2026-04-28 19:39 55.35445 20.49112 10723 ft 324 kts 316°
2026-04-28 19:39 55.37102 20.46319 10970 ft 337 kts 316°
2026-04-28 19:40 55.38837 20.43419 11206 ft 350 kts 317°
2026-04-28 19:40 55.40621 20.40457 11430 ft 362 kts 317°
2026-04-28 19:40 55.42475 20.37387 11710 ft 371 kts 317°
2026-04-28 19:40 55.44362 20.34268 12174 ft 375 kts 316°
2026-04-28 19:41 55.46319 20.31187 12675 ft 377 kts 320°
2026-04-28 19:41 55.48406 20.28459 13151 ft 379 kts 326°
2026-04-28 19:41 55.50661 20.26051 13616 ft 382 kts 330°
2026-04-28 19:41 55.52980 20.23813 14071 ft 384 kts 331°
2026-04-28 19:42 55.55362 20.21554 14523 ft 387 kts 332°
2026-04-28 19:42 55.57734 20.19305 14963 ft 390 kts 332°
2026-04-28 19:42 55.60086 20.17065 15390 ft 392 kts 331°
2026-04-28 19:42 55.61681 20.15541 15672 ft 394 kts 331°
2026-04-28 19:43 55.64914 20.12443 16230 ft 397 kts 331°
2026-04-28 19:43 55.67333 20.10118 16635 ft 399 kts 331°
2026-04-28 19:43 55.69760 20.07781 17031 ft 402 kts 331°
2026-04-28 19:43 55.72209 20.05419 17418 ft 404 kts 331°
2026-04-28 19:44 55.74698 20.03014 17801 ft 406 kts 331°
2026-04-28 19:44 55.77166 20.00625 18170 ft 408 kts 331°
2026-04-28 19:44 55.79677 19.98192 18535 ft 410 kts 331°
2026-04-28 19:44 55.82171 19.95771 18887 ft 413 kts 331°
2026-04-28 19:45 55.84663 19.93348 19228 ft 415 kts 331°
2026-04-28 19:45 55.87200 19.90878 19567 ft 417 kts 331°
2026-04-28 19:45 55.89733 19.88407 19900 ft 419 kts 331°
2026-04-28 19:45 55.92280 19.85920 20227 ft 421 kts 331°
2026-04-28 19:46 55.94878 19.83379 20554 ft 423 kts 331°
2026-04-28 19:46 55.97435 19.80874 20868 ft 425 kts 331°
2026-04-28 19:46 56.00009 19.78348 21177 ft 427 kts 331°
2026-04-28 19:46 56.02633 19.75769 21485 ft 429 kts 331°
2026-04-28 19:47 56.05225 19.73218 21782 ft 431 kts 331°
2026-04-28 19:47 56.07848 19.70631 22075 ft 433 kts 331°
2026-04-28 19:47 56.10478 19.68032 22363 ft 434 kts 331°
2026-04-28 19:47 56.13124 19.65414 22647 ft 436 kts 331°
2026-04-28 19:48 56.15768 19.62794 22926 ft 438 kts 331°
2026-04-28 19:48 56.18468 19.60258 23178 ft 440 kts 337°
2026-04-28 19:48 56.21409 19.58799 23400 ft 442 kts 352°
2026-04-28 19:48 56.24448 19.58722 23668 ft 443 kts
2026-04-28 19:49 56.27472 19.59798 23950 ft 444 kts 13°
2026-04-28 19:49 56.30449 19.61095 24189 ft 446 kts 14°
2026-04-28 19:49 56.33479 19.62442 24421 ft 448 kts 14°
2026-04-28 19:49 56.36507 19.63782 24664 ft 450 kts 14°
2026-04-28 19:50 56.42562 19.66431 25136 ft 453 kts 14°
2026-04-28 19:50 56.45650 19.67774 25366 ft 455 kts 14°
2026-04-28 19:50 56.48689 19.69094 25587 ft 456 kts 14°
2026-04-28 19:51 56.51777 19.70435 25807 ft 458 kts 14°
2026-04-28 19:51 56.54880 19.71784 26025 ft 459 kts 14°
2026-04-28 19:51 56.57983 19.73135 26302 ft 459 kts 14°
2026-04-28 19:51 56.61043 19.74468 26617 ft 458 kts 14°
2026-04-28 19:52 56.64141 19.75821 26925 ft 457 kts 14°
2026-04-28 19:52 56.67237 19.77175 27215 ft 456 kts 14°
2026-04-28 19:52 56.70288 19.78511 27501 ft 456 kts 14°
2026-04-28 19:52 56.73336 19.79848 27782 ft 455 kts 14°
2026-04-28 19:53 56.76414 19.81201 28063 ft 455 kts 14°
2026-04-28 19:53 56.79477 19.82550 28347 ft 454 kts 14°
2026-04-28 19:53 56.82545 19.83902 28625 ft 453 kts 14°
2026-04-28 19:53 56.85603 19.85252 28896 ft 453 kts 14°
2026-04-28 19:54 56.88641 19.86596 29167 ft 452 kts 14°
2026-04-28 19:54 56.91663 19.87935 29432 ft 452 kts 14°
2026-04-28 19:54 56.94732 19.89297 29695 ft 451 kts 14°
2026-04-28 19:54 56.97750 19.90640 29955 ft 451 kts 14°
2026-04-28 19:55 57.00759 19.92097 30206 ft 450 kts 16°
2026-04-28 19:55 57.03746 19.93755 30456 ft 450 kts 17°
2026-04-28 19:55 57.06740 19.95481 30707 ft 449 kts 17°
2026-04-28 19:55 57.09685 19.97192 30949 ft 449 kts 18°
2026-04-28 19:56 57.12664 19.98925 31183 ft 449 kts 17°
2026-04-28 19:56 57.15612 20.00640 31384 ft 449 kts 17°
2026-04-28 19:56 57.18588 20.02370 31565 ft 450 kts 17°
2026-04-28 19:56 57.21581 20.04112 31736 ft 451 kts 17°
2026-04-28 19:57 57.24536 20.05832 31906 ft 451 kts 17°
2026-04-28 19:57 57.27535 20.07581 32079 ft 452 kts 17°
2026-04-28 19:57 57.30501 20.09313 32249 ft 453 kts 17°
2026-04-28 19:57 57.33522 20.11080 32414 ft 453 kts 17°
2026-04-28 19:58 57.36512 20.12830 32571 ft 454 kts 17°
2026-04-28 19:58 57.39507 20.14586 32725 ft 455 kts 17°
2026-04-28 19:58 57.42495 20.16339 32876 ft 455 kts 17°
2026-04-28 19:59 57.48529 20.19890 32972 ft 456 kts 17°
2026-04-28 19:59 57.54549 20.23447 32976 ft 456 kts 17°
2026-04-28 20:00 57.60600 20.27037 32977 ft 456 kts 17°
2026-04-28 20:00 57.66614 20.30617 32977 ft 456 kts 17°
2026-04-28 20:01 57.72627 20.34210 32977 ft 456 kts 17°
2026-04-28 20:01 57.78639 20.37814 32977 ft 456 kts 17°
2026-04-28 20:02 57.84650 20.41431 32977 ft 456 kts 17°
2026-04-28 20:02 57.90684 20.45075 32977 ft 456 kts 17°
2026-04-28 20:03 57.96720 20.48732 32977 ft 456 kts 17°
2026-04-28 20:03 58.02733 20.52389 32977 ft 456 kts 17°
2026-04-28 20:04 58.08745 20.56058 32977 ft 456 kts 17°
2026-04-28 20:04 58.14730 20.59718 32977 ft 456 kts 17°
2026-04-28 20:05 58.20750 20.63411 32977 ft 456 kts 17°
2026-04-28 20:05 58.26775 20.67122 32977 ft 456 kts 18°
2026-04-28 20:06 58.32787 20.70842 32977 ft 456 kts 18°
2026-04-28 20:06 58.38788 20.74569 32977 ft 456 kts 18°
2026-04-28 20:07 58.44821 20.78330 32977 ft 456 kts 18°
2026-04-28 20:07 58.50826 20.82087 32977 ft 456 kts 18°
2026-04-28 20:08 58.56831 20.85858 32977 ft 456 kts 18°
2026-04-28 20:08 58.62802 20.89627 32977 ft 456 kts 18°
2026-04-28 20:09 58.68838 20.93452 32977 ft 456 kts 18°
2026-04-28 20:09 58.74844 20.97268 32977 ft 456 kts 18°
2026-04-28 20:10 58.80825 21.01080 32977 ft 456 kts 18°
2026-04-28 20:10 58.86836 21.04922 32977 ft 456 kts 18°
2026-04-28 20:11 58.92853 21.08784 32977 ft 456 kts 18°
2026-04-28 20:11 58.98742 21.13127 32974 ft 456 kts 27°
2026-04-28 20:12 59.03934 21.19984 32976 ft 456 kts 41°
2026-04-28 20:12 59.07497 21.27577 32977 ft 456 kts 53°